{"data":{"norad_id":67697,"epoch":"2026-05-25T01:00:13.923648Z","epoch_age_seconds":78210,"freshness":"FRESH","line1":"1 67697U 26025E   26145.04182782  .00022097  00000+0  68457-3 0  9992","line2":"2 67697  97.2852 256.6539 0000060 141.7647 218.3600 15.33454741 17715","mean_motion":15.33454741,"eccentricity":6.0e-6,"inclination_deg":97.2852,"raan_deg":256.6539,"arg_perigee_deg":141.7647,"mean_anomaly_deg":218.36,"bstar":0.00068457,"rev_number":1771,"period_min":93.90560813428,"perigee_km":465.47313036178,"apogee_km":465.55525417608,"semimajor_km":6843.6511922689,"source":"CELESTRAK","updated_at":"2026-05-25T13:38:21.663397Z"}}